Вернуться в каталог

KUIPER-00481

АктивенСвязьLEO
NORAD 69594·PAYLOAD·🇺🇸 United States

Запущен Jun 17, 2026 с Guiana Space Centre

Loading…

Ближайшие Пролёты (ближайшие 24 часа)

TLE

СвежийSource: CelesTrak SupGP

Эпоха: Sep 14, 2026, 17:26 UTC

1 69594C 26140C   26257.72658565  .00004659  00000+0  66149-3 0  2571
2 69594  51.9011 334.4245 0001688 321.5807 255.8429 14.76488727    16

Отслеживайте KUIPER-00481 в реальном времени с AllMySat

Download on the App Store